Davenport, IA

9:41 PM CDT on September 20, 2017 (GMT -0500)
Davenport Municipal

Weather History for KDVN - October, 2011

Change the Weather History Date:

Wednesday, October 26, 2011

  Actual Average Record
Temperature  
Mean Temperature 47 °F 48 °F  
Max Temperature 51 °F 59 °F 82 °F (1963)
Min Temperature 42 °F 38 °F 25 °F (1962)
Degree Days  
Heating Degree Days 18 17  
Month to date heating degree days 258 334  
Since 1 July heating degree days 452 469  
Cooling Degree Days 0 0  
Month to date cooling degree days 17 11  
Year to date cooling degree days 1020 785  
Moisture  
Dew Point 39 °F    
Average Humidity 74    
Maximum Humidity 86    
Minimum Humidity 61    
Precipitation  
Precipitation 0.00 in 0.10 in 0.85 in (2004)
Month to date precipitation 0.42 2.51  
Year to date precipitation 26.95 31.39  
Snow  
Snow 0.00 in - - ()
Month to date snowfall 0.0  
Since 1 July snowfall 0.0  
Since 1 September snowfall 0.0  
Snow Depth 0.00 in    
Sea Level Pressure  
Sea Level Pressure 29.96 in    
Wind  
Wind Speed 10 mph (North)    
Max Wind Speed 17 mph    
Max Gust Speed -    
Visibility 8 miles    
Events      
T = Trace of Precipitation, MM = Missing Value Source: NWS Daily Summary

Daily Weather History Graph

Daily Weather History Graph

Search for Another Location

Airport or City:

Trip Planner

Search our weather history database for the weather conditions in past years. The results will help you decide how hot, cold, wet, or windy it might be!

Date:

Astronomy

Oct. 26, 2011 Rise Set
Actual Time 7:26 AM CDT 6:05 PM CDT
Civil Twilight 6:58 AM CDT 6:33 PM CDT
Nautical Twilight 6:25 AM CDT 7:06 PM CDT
Astronomical Twilight 5:53 AM CDT 7:38 PM CDT
Moon 7:15 AM CDT (10/26) 5:46 PM CDT (10/26)
Length of Visible Light 11h 35m
Length of Day
10h 38m
Waning Crescent, 0% of the Moon is Illuminated
Oct 26
Waning Crescent
Oct 26
New
Nov 2
First Quarter
Nov 10
Full
Nov 18
Last Quarter

Hourly Weather History & Observations

Time (CDT) Temp. Windchill Dew Point Humidity Pressure Visibility Wind Dir Wind Speed Gust Speed Precip Events Conditions
12:52 AM 51.1 °F - 45.0 °F 80% 29.82 in 6.0 mi North 15.0 mph - N/A   Haze
1:30 AM 50.0 °F - 44.6 °F 82% 29.82 in 5.0 mi NNE 10.4 mph - N/A   Haze
1:52 AM 50.0 °F - 44.1 °F 80% 29.83 in 5.0 mi North 13.8 mph - N/A   Haze
2:52 AM 50.0 °F - 44.1 °F 80% 29.85 in 6.0 mi NNE 10.4 mph - N/A   Haze
3:52 AM 50.0 °F - 43.0 °F 77% 29.86 in 6.0 mi North 15.0 mph - N/A   Haze
4:52 AM 48.9 °F - 42.1 °F 77% 29.90 in 6.0 mi North 16.1 mph - N/A   Haze
5:33 AM 48.2 °F - 42.8 °F 82% 29.90 in 5.0 mi North 17.3 mph - N/A   Haze
7:33 AM 46.4 °F 40.4 °F 39.2 °F 76% 29.94 in 9.0 mi North 13.8 mph - N/A   Overcast
7:52 AM 45.0 °F 38.2 °F 39.9 °F 82% 29.94 in 8.0 mi North 15.0 mph - N/A   Overcast
8:52 AM 45.0 °F 39.7 °F 39.0 °F 80% 29.97 in 8.0 mi North 10.4 mph - N/A   Overcast
9:52 AM 45.0 °F 38.5 °F 39.0 °F 80% 30.00 in 8.0 mi North 13.8 mph - N/A   Overcast
10:52 AM 46.0 °F 41.4 °F 39.0 °F 76% 30.02 in 10.0 mi North 9.2 mph - N/A   Overcast
11:52 AM 46.9 °F - 39.0 °F 74% 30.03 in 10.0 mi North 10.4 mph - N/A   Overcast
12:52 PM 46.9 °F - 37.9 °F 71% 30.00 in 10.0 mi North 12.7 mph - N/A   Overcast
2:09 PM 48.2 °F - 37.4 °F 66% 29.98 in 10.0 mi North 12.7 mph - N/A   Overcast
2:52 PM 48.9 °F - 37.9 °F 66% 29.99 in 10.0 mi North 9.2 mph - N/A   Mostly Cloudy
3:10 PM 50.0 °F - 39.2 °F 66% 29.97 in 10.0 mi NNE 12.7 mph - N/A   Scattered Clouds
3:27 PM 50.0 °F - 37.4 °F 62% 29.98 in 10.0 mi North 11.5 mph - N/A   Mostly Cloudy
3:52 PM 50.0 °F - 37.9 °F 63% 30.00 in 10.0 mi North 11.5 mph - N/A   Overcast
4:40 PM 48.2 °F - 37.4 °F 66% 29.99 in 10.0 mi North 15.0 mph - N/A   Mostly Cloudy
4:52 PM 48.0 °F - 37.0 °F 66% 29.99 in 10.0 mi North 13.8 mph - N/A   Scattered Clouds
5:52 PM 46.9 °F - 37.0 °F 68% 30.00 in 10.0 mi North 8.1 mph - N/A   Overcast
6:52 PM 46.0 °F 42.5 °F 37.0 °F 71% 30.03 in 10.0 mi North 6.9 mph - N/A   Overcast
7:52 PM 45.0 °F 41.2 °F 37.0 °F 74% 30.03 in 10.0 mi North 6.9 mph - N/A   Overcast
9:52 PM 44.1 °F 41.5 °F 37.0 °F 76% 30.05 in 10.0 mi NW 4.6 mph - N/A   Mostly Cloudy
11:52 PM 43.0 °F 39.5 °F 36.0 °F 76% 30.02 in 10.0 mi NNW 5.8 mph - N/A   Overcast